Wind_Speed
36 36 37 36 32 30 27 24 23 23 23 24 25 24 25 22 21 18 17 17 16 8 13 13 13 12 9 7 4 6 3 3 2 2 3 3 3 4 2 4 5 6 6 4 2 1 6 13 7 7 6 7 10 14
40 40 38 38 37 35 34 32 29 27 25 24 26 26 27 26 25 22 23 19 18 20 10 10 17 25 23 15 9 14 3 6 10 3 0 2 2 1 3 4 1 3 7 4 9 6 4 31 13 18 12 11 13 16
37 36 38 40 41 40 39 37 35 32 29 27 27 30 28 29 30 29 26 21 19 18 24 31 28 28 29 27 23 8 7 9 6 7 6 2 5 4 4 6 3 6 6 3 1 7 16 26 33 27 25 26 22 19
35 33 31 31 32 34 38 37 36 33 32 29 28 29 32 31 31 34 31 26 21 5 5 9 9 14 18 24 31 28 20 9 7 6 4 2 2 9 4 4 5 5 11 6 7 14 16 30 32 34 29 27 27 28
28 29 29 29 30 26 29 33 31 32 31 30 30 28 30 32 32 33 34 31 24 15 4 7 12 18 17 15 20 28 27 21 9 4 2 3 4 2 2 2 7 14 10 7 9 15 13 24 26 24 22 21 19 21
29 28 26 26 27 33 30 24 29 31 31 31 31 30 25 31 31 32 16 32 31 29 6 3 6 11 13 18 21 20 25 21 15 6 5 6 5 5 3 4 10 28 38 40 30 37 33 38 36 34 29 27 23 20
31 29 27 26 24 26 31 32 30 25 25 29 30 29 26 32 39 41 13 8 22 29 6 4 5 4 10 11 11 12 17 12 11 6 7 5 5 8 3 10 7 20 27 34 41 42 33 46 31 29 17 19 22 20
30 30 29 28 25 25 25 27 31 32 24 25 26 25 23 33 43 40 34 14 23 26 9 3 3 3 11 7 6 10 10 12 9 7 5 5 5 8 7 17 22 38 40 42 47 47 49 49 40 36 28 25 25 24
30 29 29 29 27 27 26 26 25 25 28 19 19 20 22 30 28 28 30 24 36 16 8 6 5 5 15 5 6 8 9 3 6 3 5 7 4 9 13 22 27 43 29 31 24 26 35 38 38 38 32 32 34 38
33 30 30 29 28 28 27 26 26 23 21 24 24 12 6 15 26 27 21 25 16 9 9 5 12 4 9 7 4 6 5 2 3 5 6 5 8 37 33 46 47 47 37 31 28 29 34 36 37 40 37 30 30 29
31 30 30 29 28 27 26 24 22 19 17 17 13 10 9 23 23 15 9 8 10 4 12 11 22 8 14 4 3 8 3 3 2 4 5 4 6 6 33 41 39 39 36 37 38 35 34 33 31 32 31 31 29 27
31 30 29 28 28 26 24 21 17 14 12 14 9 11 23 9 9 6 6 6 7 8 9 9 14 19 14 9 4 7 5 4 6 9 3 5 5 26 26 25 21 11 13 18 17 19 18 20 21 22 26 27 28 25
30 29 29 28 26 24 22 21 18 17 17 16 11 10 10 10 8 8 10 5 6 9 17 15 8 17 8 9 5 4 7 6 10 4 6 6 11 21 19 9 10 13 12 11 9 10 11 11 14 15 19 21 23 23
30 30 29 30 28 24 22 21 19 20 15 10 10 9 6 5 6 5 6 4 10 18 32 32 11 6 8 5 4 5 5 4 4 5 9 3 21 23 17 12 10 10 11 7 5 6 6 5 6 8 11 14 17 18
30 30 29 29 27 25 24 23 20 20 19 11 7 7 9 9 11 16 16 10 12 34 38 20 6 6 3 4 5 4 6 7 9 6 3 13 13 15 8 7 4 3 5 6 5 2 3 5 5 6 7 8 9 12
29 29 30 28 27 25 23 22 23 22 12 11 11 5 5 7 5 7 22 16 28 32 29 7 5 5 6 5 7 9 7 10 5 4 19 12 12 17 17 12 8 6 6 4 3 2 3 6 7 8 8 7 7 9
26 29 28 26 24 22 20 20 18 13 10 7 7 31 31 21 18 25 16 19 33 33 7 4 9 10 5 5 6 6 8 5 8 17 16 17 22 20 15 13 9 6 4 2 0 2 5 7 8 9 9 7 9 11
28 25 23 21 20 18 22 22 12 10 9 21 8 26 27 30 32 23 26 33 30 23 19 9 9 7 6 7 5 11 4 12 13 14 13 19 25 20 18 13 8 6 5 5 5 4 5 8 10 10 8 8 10 12
29 27 24 22 19 18 7 8 16 6 20 27 32 31 31 30 39 34 35 45 44 36 16 7 5 5 6 6 9 10 19 23 25 25 22 21 28 22 19 12 11 11 8 4 6 9 8 8 10 12 11 9 12 13
26 26 25 23 19 16 7 9 13 11 5 13 24 25 32 32 35 32 36 36 41 21 10 5 8 11 16 38 24 20 26 27 28 24 27 28 34 23 18 14 14 11 6 4 5 9 9 9 12 13 12 12 13 16
24 26 24 22 24 22 10 10 10 8 7 9 17 22 12 20 20 25 27 34 24 7 7 21 37 46 35 16 20 32 19 18 23 32 29 32 30 29 21 17 17 13 10 10 11 13 12 12 13 13 12 13 13 15
25 22 21 21 14 11 14 18 11 6 10 15 9 15 5 5 6 21 23 17 10 25 39 42 37 29 33 32 23 20 28 30 32 27 25 18 22 23 22 20 18 17 17 16 17 17 14 13 14 13 12 12 14 16
21 20 16 12 12 10 9 24 13 12 7 3 8 5 3 3 12 23 5 11 24 36 36 33 33 30 22 26 31 31 30 31 30 29 27 26 22 17 17 22 24 23 22 21 19 16 15 16 15 14 13 16 18 23
18 9 7 9 16 6 9 6 7 5 7 4 4 4 4 3 14 5 6 5 24 22 29 33 35 29 28 32 36 38 37 36 34 30 26 27 29 29 32 34 30 27 23 19 19 18 17 16 16 16 17 20 25 30
7 10 10 9 10 5 5 4 4 4 5 4 4 2 3 7 4 4 3 4 23 30 30 32 36 40 37 39 40 43 42 37 36 39 41 39 38 36 34 32 30 28 25 26 25 23 20 18 18 18 20 26 31 31
10 14 9 9 4 6 7 5 7 7 3 4 5 2 4 3 3 7 4 13 26 33 39 43 45 39 34 39 36 35 46 44 41 38 40 38 36 32 33 29 27 29 27 26 25 23 22 21 20 19 23 27 29 31
9 10 5 7 7 5 3 3 3 3 5 5 4 5 4 4 6 4 9 18 23 35 39 41 40 37 38 40 42 41 37 31 29 29 26 23 22 21 21 23 26 24 21 20 23 25 22 21 21 22 25 29 31 30
8 9 7 5 5 12 5 4 6 8 5 6 6 6 7 7 6 5 6 11 16 14 11 23 28 29 32 33 29 25 24 23 21 21 20 20 19 17 17 18 18 17 15 14 17 19 19 19 22 26 28 31 30 29
4 8 10 7 5 4 4 6 5 6 11 11 6 4 4 6 5 5 6 6 8 17 13 13 14 15 18 21 22 22 21 20 21 21 21 22 21 20 19 18 18 17 14 14 13 14 17 19 23 27 30 32 31 30
6 17 3 4 5 6 3 8 3 5 7 8 4 4 5 5 8 12 9 9 11 12 11 10 10 10 12 13 14 14 15 16 16 19 21 22 18 13 15 17 17 17 16 17 21 21 22 26 30 33 33 32 32 30
15 10 3 2 3 2 3 4 4 5 4 6 6 3 3 3 3 7 12 13 15 13 10 9 9 11 11 10 9 10 12 13 13 13 13 11 7 10 16 18 19 19 20 25 29 29 32 34 36 35 34 31 30 27
8 4 4 4 2 5 5 3 2 1 0 1 1 2 3 3 3 3 8 17 19 17 13 12 10 9 10 9 10 11 9 10 14 15 16 13 10 13 18 21 22 22 28 29 31 34 34 35 35 33 31 30 27 25
5 4 2 2 2 1 3 2 4 2 3 2 2 3 2 2 5 4 5 12 14 14 12 10 11 12 10 10 10 10 9 10 12 15 14 12 11 17 23 25 25 29 32 34 34 34 34 32 32 31 29 27 27 26
Wind_Direction
277 278 279 281 283 285 282 280 280 277 275 271 269 257 245 247 247 244 246 235 227 241 252 239 230 212 187 191 168 160 114 207 106 182 154 213 201 223 172 216 195 190 161 202 121 168 282 165 124 177 210 193 199 209
276 277 274 275 275 278 281 281 277 275 272 270 266 263 246 240 245 245 242 238 233 236 263 250 245 241 241 238 219 190 225 176 200 113 211 105 208 98 184 264 186 259 199 188 192 220 220 184 212 222 238 231 225 221
277 276 274 272 272 272 269 270 271 269 268 267 267 262 256 238 237 242 246 240 227 245 266 261 258 254 245 237 230 219 230 223 204 206 164 171 235 140 190 237 225 236 177 225 18 247 229 226 240 253 253 257 257 248
278 280 278 272 271 269 267 267 265 261 262 262 266 264 259 245 232 238 239 241 224 233 259 265 250 247 246 235 231 228 234 228 220 202 211 157 206 197 226 267 219 191 146 194 256 275 267 261 255 266 264 258 260 257
279 282 282 277 261 271 268 269 269 264 261 261 261 264 263 252 235 240 240 238 228 214 248 276 284 266 247 233 227 228 228 229 222 195 162 218 225 208 237 312 241 182 196 193 244 244 238 264 275 272 264 249 255 262
275 278 283 287 274 260 268 271 268 267 268 262 263 261 259 255 229 221 225 238 224 214 260 276 266 247 237 225 222 214 217 223 220 211 217 233 224 221 224 241 241 238 234 234 242 259 264 272 279 279 272 263 261 260
274 277 279 283 288 282 271 265 269 272 267 268 267 267 259 254 224 206 215 214 206 191 213 274 257 232 208 185 178 178 199 194 205 221 224 232 216 211 252 254 180 251 252 249 250 254 264 262 261 267 274 275 262 264
273 274 276 277 283 284 286 277 272 271 274 263 269 267 261 258 228 209 222 193 179 174 185 236 224 205 182 166 144 163 177 200 207 209 201 206 210 212 253 254 266 257 257 256 256 258 259 266 269 268 265 261 257 257
267 273 277 278 280 281 284 284 284 277 266 271 274 270 276 194 196 200 206 194 176 179 199 216 195 204 167 151 141 151 173 176 194 229 229 181 197 223 240 249 244 259 250 261 271 265 262 264 270 270 263 259 258 265
266 269 271 275 279 282 283 282 282 285 282 278 276 251 213 199 194 174 160 168 184 216 222 235 179 155 161 144 167 133 184 221 210 222 177 225 251 250 254 259 264 264 266 269 264 261 263 259 262 268 267 269 268 270
265 268 271 273 275 275 279 286 279 289 278 271 240 214 220 167 152 179 168 167 182 222 211 194 182 136 186 149 162 202 180 163 215 227 184 251 262 230 251 254 262 261 262 267 269 270 267 268 272 278 279 280 276 272
264 264 268 272 274 275 275 281 273 267 257 272 236 175 168 200 193 171 178 176 188 211 193 169 171 174 155 163 134 177 180 169 237 139 204 255 267 263 260 260 259 256 252 261 273 266 263 268 274 274 276 277 277 276
263 264 265 267 270 272 276 271 274 256 263 264 226 172 184 195 218 190 182 191 190 180 172 163 150 156 136 170 148 172 187 210 123 191 229 236 248 270 259 250 249 249 250 253 259 261 267 278 285 286 286 282 279 271
263 262 262 264 265 269 271 265 267 242 237 231 205 193 209 192 213 197 212 187 189 161 155 158 144 141 150 165 160 188 187 136 218 234 232 228 237 248 256 254 269 265 224 207 224 258 277 291 306 303 296 288 280 272
261 261 261 261 262 262 268 264 260 244 235 224 232 231 187 207 220 223 231 177 170 155 151 155 116 131 143 183 184 153 175 229 216 233 229 242 255 238 195 190 203 152 168 159 136 68 347 332 343 329 311 296 281 268
259 261 257 258 258 258 264 268 268 250 239 234 216 261 236 156 234 230 195 187 169 164 153 159 150 178 188 187 174 205 181 220 209 205 222 212 228 205 187 181 164 143 116 108 100 46 344 320 325 326 317 304 273 249
256 252 255 255 257 256 261 261 253 236 238 232 221 238 243 241 217 231 215 189 168 159 178 166 189 196 137 193 202 194 218 184 199 218 215 211 194 189 179 175 168 164 149 177 22 325 309 302 303 302 305 299 266 250
244 251 253 254 256 259 263 253 241 234 224 231 233 239 231 235 235 215 204 181 172 194 197 204 159 190 193 189 233 219 172 197 209 209 199 204 203 198 190 186 192 195 160 111 79 28 331 309 298 296 294 280 253 243
245 249 250 252 253 248 238 227 214 235 228 239 243 243 227 226 229 221 201 193 200 200 205 189 216 188 210 220 237 196 200 209 216 215 217 237 207 208 196 192 186 176 159 98 41 20 355 333 322 303 285 263 255 239
245 245 247 251 248 247 231 230 216 228 207 229 237 230 223 226 231 211 198 192 198 203 212 211 219 222 220 226 226 230 228 224 220 211 222 223 214 212 198 198 200 199 214 272 315 333 326 307 305 298 287 269 244 227
246 244 244 248 248 240 251 243 230 232 231 219 246 217 225 220 200 190 192 190 194 208 209 218 226 229 230 242 240 226 222 210 224 224 227 229 219 217 207 201 204 219 240 261 282 294 291 289 292 288 276 256 238 224
240 243 250 251 237 236 236 232 231 234 234 242 223 207 203 196 189 192 186 192 215 218 217 220 226 228 227 230 226 228 235 235 244 248 236 231 202 201 204 210 220 245 263 272 278 280 283 276 280 280 263 241 223 208
241 242 242 237 235 228 245 229 213 219 216 229 184 192 218 207 192 161 200 216 225 225 225 225 226 228 230 236 232 233 237 238 231 227 222 220 226 232 238 250 261 270 271 269 271 269 265 263 265 263 247 225 212 199
229 225 221 224 203 226 194 200 217 211 201 192 206 216 196 171 162 202 231 227 230 231 221 221 220 224 230 235 238 240 240 235 235 234 232 240 247 251 259 262 260 267 265 264 260 261 259 258 255 249 237 219 207 205
218 218 214 235 210 201 207 202 194 230 216 175 185 222 189 183 199 237 225 235 221 221 218 218 221 223 224 232 236 240 242 240 241 244 246 247 256 256 257 259 257 259 255 252 249 251 247 248 247 245 230 215 210 201
215 218 214 198 186 179 185 203 198 200 180 176 213 221 162 166 214 242 216 210 215 219 218 217 217 218 222 228 232 235 247 249 246 246 252 252 253 253 252 253 255 250 244 243 243 241 240 241 238 235 220 217 207 195
223 225 206 195 184 170 188 208 174 176 189 184 178 184 181 212 234 252 229 221 222 226 230 229 223 219 228 234 240 241 241 244 246 251 259 257 253 250 247 244 244 250 248 245 237 234 235 231 230 218 208 200 195 190
223 178 173 194 215 192 180 196 190 198 183 166 149 190 189 206 226 226 236 235 230 227 235 229 231 232 234 237 240 240 238 234 233 237 243 243 241 238 232 229 229 234 236 234 224 218 216 223 215 202 192 185 181 182
196 197 164 186 226 194 229 202 209 212 171 167 184 195 230 230 247 236 239 241 216 199 199 189 192 207 217 221 226 230 233 231 227 226 228 233 230 227 223 222 219 213 208 197 189 201 206 199 192 182 177 177 177 175
199 169 185 212 218 203 194 203 244 208 202 198 228 256 250 246 244 240 240 216 187 183 186 207 217 218 220 222 224 223 225 224 224 228 227 228 233 228 217 210 199 184 188 188 178 176 183 183 177 174 176 173 173 175
155 162 169 194 228 226 203 196 198 204 218 218 228 270 282 314 280 254 221 204 197 217 230 229 230 234 233 224 218 217 214 208 201 209 218 218 211 206 201 194 186 190 191 182 178 175 170 171 171 170 172 175 176 176
147 163 165 169 209 171 163 186 174 189 285 232 298 281 303 307 291 247 226 225 228 227 233 232 228 235 232 207 198 211 217 209 205 207 206 206 203 192 190 189 189 186 177 174 172 171 171 169 168 170 170 173 173 172
110 130 127 133 127 244 195 132 29 12 23 15 332 341 303 257 244 252 245 228 220 221 220 208 202 214 211 194 193 202 200 187 186 188 191 192 191 184 182 183 181 176 172 168 168 167 169 170 167 169 170 169 168 165
Height
1494 1494 1496 1498 1498 1498 1498 1498 1497 1497 1497 1498 1498 1498 1500 1502 1504 1504 1504 1505 1507 1505 1500 1497 1500 1502 1501 1503 1505 1505 1509 1507 1512 1514 1516 1517 1515 1510 1509 1502 1501 1499 1512 1512 1516 1516 1483 1460 1469 1468 1452 1450 1451 1453
1483 1485 1485 1486 1487 1489 1490 1490 1490 1490 1490 1490 1490 1490 1492 1495 1497 1499 1499 1500 1500 1501 1495 1491 1490 1492 1495 1496 1498 1499 1497 1495 1497 1504 1510 1510 1508 1518 1508 1500 1491 1498 1479 1479 1479 1462 1446 1446 1442 1442 1443 1444 1445 1446
1473 1473 1475 1476 1477 1477 1478 1479 1480 1480 1481 1482 1483 1483 1483 1485 1489 1491 1493 1494 1496 1496 1490 1485 1480 1485 1485 1488 1491 1494 1493 1493 1492 1493 1495 1499 1500 1498 1503 1498 1482 1474 1471 1475 1469 1438 1439 1440 1438 1438 1438 1437 1438 1440
1462 1464 1462 1465 1465 1467 1468 1468 1469 1470 1471 1473 1475 1476 1476 1477 1479 1481 1484 1487 1490 1492 1488 1474 1473 1474 1476 1479 1482 1486 1487 1489 1491 1491 1492 1495 1496 1487 1483 1475 1474 1461 1466 1464 1459 1436 1438 1433 1430 1428 1430 1431 1432 1433
1453 1454 1454 1454 1455 1455 1458 1459 1460 1461 1462 1463 1465 1467 1469 1469 1472 1474 1476 1478 1483 1489 1481 1473 1470 1469 1469 1470 1473 1478 1482 1486 1488 1489 1489 1490 1485 1485 1478 1476 1455 1446 1444 1449 1433 1423 1426 1422 1422 1424 1423 1423 1424 1425
1444 1446 1447 1446 1445 1446 1447 1447 1450 1452 1452 1452 1456 1456 1459 1462 1465 1468 1471 1467 1472 1476 1482 1475 1466 1462 1463 1463 1465 1468 1474 1480 1485 1484 1483 1479 1476 1478 1477 1461 1415 1421 1422 1422 1416 1416 1417 1415 1416 1416 1417 1418 1418 1417
1436 1437 1438 1437 1436 1438 1440 1439 1440 1440 1441 1444 1445 1447 1448 1450 1450 1452 1454 1451 1458 1470 1475 1472 1462 1459 1459 1462 1464 1466 1472 1472 1476 1479 1477 1474 1473 1474 1466 1440 1401 1408 1410 1409 1409 1412 1410 1406 1404 1406 1409 1411 1412 1412
1428 1429 1430 1430 1429 1430 1432 1431 1432 1431 1432 1434 1437 1437 1438 1438 1439 1439 1444 1449 1454 1465 1467 1464 1454 1459 1458 1458 1460 1462 1467 1471 1468 1467 1467 1467 1467 1464 1442 1391 1398 1397 1400 1400 1398 1399 1397 1397 1398 1399 1400 1402 1403 1404
1419 1421 1421 1422 1422 1422 1424 1425 1425 1424 1426 1424 1428 1428 1426 1423 1424 1427 1438 1445 1445 1454 1454 1450 1444 1446 1450 1453 1455 1457 1462 1466 1464 1462 1459 1458 1449 1433 1392 1388 1387 1383 1388 1386 1389 1391 1390 1389 1389 1388 1389 1391 1392 1393
1413 1412 1411 1413 1415 1416 1417 1417 1420 1417 1419 1420 1419 1419 1415 1415 1417 1428 1434 1438 1443 1440 1440 1434 1434 1441 1446 1447 1454 1457 1458 1456 1456 1449 1450 1445 1414 1388 1382 1374 1378 1373 1375 1380 1382 1380 1380 1379 1379 1381 1380 1382 1381 1382
1402 1404 1404 1405 1408 1408 1411 1409 1412 1412 1414 1413 1412 1407 1410 1415 1417 1417 1419 1424 1429 1428 1417 1414 1420 1427 1439 1443 1447 1448 1449 1450 1452 1441 1444 1429 1397 1369 1364 1362 1360 1363 1367 1368 1369 1368 1370 1371 1370 1373 1374 1376 1375 1374
1392 1394 1396 1396 1400 1402 1402 1403 1407 1407 1407 1407 1406 1404 1410 1407 1405 1404 1406 1407 1409 1404 1399 1399 1404 1412 1425 1432 1435 1441 1440 1443 1436 1434 1440 1413 1371 1353 1353 1352 1355 1356 1358 1359 1359 1358 1360 1362 1364 1365 1366 1367 1368 1368
1383 1385 1387 1389 1391 1393 1394 1396 1399 1401 1398 1401 1403 1397 1395 1394 1393 1384 1384 1385 1383 1380 1382 1389 1400 1406 1416 1421 1427 1430 1431 1431 1430 1428 1410 1372 1354 1353 1351 1349 1351 1352 1352 1352 1353 1355 1356 1355 1358 1357 1359 1361 1361 1360
1374 1376 1377 1380 1382 1384 1385 1388 1391 1394 1393 1393 1387 1383 1381 1373 1367 1364 1360 1355 1355 1358 1367 1380 1392 1396 1402 1412 1416 1416 1415 1420 1420 1411 1378 1350 1338 1340 1344 1346 1347 1346 1345 1344 1348 1351 1352 1351 1350 1350 1351 1352 1354 1355
1364 1366 1368 1370 1373 1375 1378 1380 1383 1384 1383 1380 1377 1359 1356 1356 1353 1350 1350 1354 1353 1354 1362 1379 1384 1386 1393 1397 1397 1400 1407 1398 1381 1359 1353 1336 1335 1340 1340 1342 1346 1342 1343 1343 1343 1347 1349 1350 1346 1346 1345 1345 1347 1352
1355 1357 1358 1361 1363 1366 1368 1370 1371 1372 1368 1367 1357 1353 1345 1342 1346 1346 1343 1348 1352 1357 1364 1366 1372 1376 1373 1372 1376 1378 1380 1364 1343 1338 1327 1329 1333 1336 1337 1339 1341 1342 1340 1341 1341 1341 1344 1347 1345 1343 1342 1342 1343 1345
1346 1346 1348 1351 1354 1357 1360 1362 1361 1358 1354 1348 1339 1339 1338 1340 1335 1335 1338 1342 1348 1350 1349 1353 1355 1351 1352 1353 1357 1350 1338 1316 1317 1317 1321 1324 1328 1334 1333 1336 1338 1338 1337 1340 1337 1338 1340 1342 1341 1339 1338 1339 1340 1342
1336 1337 1340 1343 1346 1348 1349 1350 1350 1343 1338 1333 1332 1325 1325 1324 1324 1321 1326 1331 1338 1339 1336 1330 1329 1335 1332 1338 1328 1302 1309 1312 1315 1315 1318 1322 1326 1328 1329 1332 1334 1335 1336 1336 1336 1336 1336 1338 1337 1335 1334 1335 1336 1338
1327 1329 1333 1336 1340 1341 1339 1335 1335 1328 1319 1317 1313 1313 1313 1309 1307 1310 1311 1315 1318 1320 1323 1320 1318 1314 1313 1302 1294 1298 1301 1304 1307 1310 1311 1316 1320 1323 1323 1326 1328 1331 1331 1332 1333 1332 1333 1334 1334 1333 1330 1329 1333 1335
1319 1322 1325 1328 1331 1331 1327 1322 1319 1313 1305 1302 1300 1299 1298 1295 1293 1294 1297 1304 1311 1313 1308 1305 1298 1289 1285 1282 1287 1290 1293 1296 1300 1302 1302 1308 1314 1317 1316 1319 1324 1327 1325 1325 1328 1329 1329 1328 1328 1327 1327 1327 1328 1330
1311 1312 1316 1319 1320 1320 1315 1308 1303 1298 1293 1290 1287 1289 1287 1284 1286 1286 1287 1291 1298 1291 1288 1281 1274 1272 1280 1283 1284 1288 1289 1292 1295 1295 1294 1299 1305 1307 1310 1313 1317 1320 1321 1320 1322 1323 1322 1321 1321 1320 1321 1322 1325 1328
1301 1306 1308 1308 1309 1305 1299 1294 1292 1288 1288 1282 1281 1279 1274 1272 1271 1273 1276 1280 1275 1266 1259 1259 1263 1269 1273 1276 1280 1280 1283 1287 1291 1294 1294 1296 1299 1301 1304 1308 1311 1312 1312 1313 1313 1314 1315 1315 1314 1314 1316 1318 1322 1325
1297 1299 1300 1299 1296 1289 1281 1281 1280 1277 1278 1271 1268 1266 1263 1259 1257 1263 1264 1257 1248 1244 1250 1256 1260 1264 1267 1271 1273 1276 1277 1280 1283 1284 1286 1289 1293 1297 1301 1304 1304 1304 1303 1303 1305 1306 1307 1307 1307 1309 1310 1313 1317 1322
1289 1290 1287 1283 1279 1270 1268 1266 1264 1262 1259 1258 1256 1251 1251 1251 1252 1253 1244 1235 1235 1240 1244 1247 1252 1256 1258 1260 1262 1265 1269 1272 1275 1276 1280 1284 1287 1288 1291 1293 1295 1295 1295 1296 1297 1297 1299 1300 1301 1303 1305 1309 1312 1315
1282 1277 1274 1263 1258 1259 1256 1256 1253 1252 1246 1245 1249 1249 1246 1247 1247 1242 1237 1228 1229 1229 1233 1238 1240 1242 1244 1246 1250 1253 1257 1261 1264 1267 1270 1274 1276 1277 1278 1281 1283 1284 1286 1286 1286 1287 1290 1293 1294 1296 1300 1303 1306 1311
1265 1255 1249 1241 1246 1249 1245 1249 1246 1245 1246 1246 1244 1242 1242 1243 1242 1231 1223 1215 1215 1216 1218 1219 1221 1225 1230 1234 1237 1241 1240 1246 1251 1255 1259 1260 1262 1263 1265 1268 1270 1272 1274 1274 1276 1279 1282 1285 1287 1290 1294 1299 1304 1309
1240 1233 1233 1234 1235 1235 1238 1236 1235 1236 1236 1236 1237 1240 1238 1234 1226 1216 1204 1203 1204 1204 1206 1209 1213 1218 1220 1223 1227 1232 1236 1239 1242 1244 1247 1249 1251 1253 1254 1257 1260 1262 1264 1265 1268 1271 1275 1279 1283 1286 1290 1297 1302 1307
1225 1223 1227 1227 1228 1225 1225 1226 1224 1222 1219 1221 1227 1228 1223 1217 1208 1199 1198 1197 1199 1201 1203 1205 1210 1213 1216 1219 1222 1226 1228 1230 1233 1236 1238 1240 1241 1243 1246 1250 1252 1254 1255 1258 1262 1267 1271 1275 1279 1283 1288 1294 1301 1308
1218 1216 1221 1221 1223 1218 1215 1211 1209 1206 1206 1209 1211 1211 1208 1201 1197 1196 1195 1196 1197 1199 1201 1203 1205 1207 1210 1213 1215 1217 1219 1222 1225 1227 1229 1231 1234 1238 1240 1243 1244 1247 1251 1256 1261 1265 1270 1273 1277 1283 1289 1295 1301 1308
1207 1208 1213 1212 1209 1204 1204 1205 1204 1203 1203 1203 1204 1202 1199 1196 1195 1195 1195 1196 1197 1199 1201 1202 1203 1205 1207 1209 1210 1211 1212 1215 1218 1222 1224 1226 1228 1232 1234 1237 1240 1244 1250 1254 1259 1263 1267 1271 1277 1283 1289 1296 1302 1307
1199 1203 1206 1205 1203 1204 1203 1203 1203 1203 1203 1203 1202 1201 1198 1195 1194 1193 1194 1195 1197 1198 1199 1199 1200 1202 1203 1204 1206 1208 1210 1212 1214 1218 1221 1222 1224 1227 1230 1234 1239 1243 1247 1252 1256 1260 1264 1270 1276 1282 1290 1296 1302 1307
1193 1196 1199 1201 1203 1203 1203 1202 1202 1202 1201 1201 1199 1199 1198 1196 1194 1191 1190 1192 1193 1194 1196 1196 1198 1200 1202 1203 1205 1208 1209 1209 1211 1215 1218 1221 1222 1225 1229 1234 1238 1242 1246 1251 1257 1262 1268 1274 1278 1284 1291 1297 1302 1308
1192 1195 1197 1199 1201 1201 1201 1200 1202 1202 1200 1200 1199 1199 1199 1198 1195 1189 1187 1188 1190 1191 1193 1195 1196 1198 1200 1201 1203 1206 1207 1208 1209 1213 1216 1219 1222 1225 1229 1233 1237 1242 1247 1253 1260 1266 1272 1277 1281 1287 1292 1298 1303 1308